This is the latest recevied weather packets stored in our database for station/object N6GPM. If no packets are shown the sender has not sent any weather packets the latest 10 day(s).
| Time | Temp. | Humidity | Pressure | Rain* | Wind** | Luminosity | Snow |
|---|---|---|---|---|---|---|---|
| 1778113643 | 22.78° C | 51% | 1019.2 hPa | 0 mm | - | 261 W/m² | - |
| 1778113339 | 22.78° C | 50% | 1018.9 hPa | 0 mm | - | 287 W/m² | - |
| 1778113036 | 22.78° C | 50% | 1018.6 hPa | 0 mm | - | 299 W/m² | - |
| 1778112733 | 23.33° C | 50% | 1018.6 hPa | 0 mm | - | 319 W/m² | - |
| 1778112429 | 23.33° C | 50% | 1018.5 hPa | 0 mm | - | 341 W/m² | - |
| 1778112125 | 23.33° C | 50% | 1019 hPa | 0 mm | - | 363 W/m² | - |
| 1778111822 | 23.89° C | 48% | 1018.5 hPa | 0 mm | - | 367 W/m² | - |
| 1778111517 | 23.89° C | 47% | 1018.5 hPa | 0 mm | - | 392 W/m² | - |
| 1778111215 | 22.78° C | 49% | 1018.9 hPa | 0 mm | - | 390 W/m² | - |
| 1778110912 | 23.33° C | 50% | 1018.7 hPa | 0 mm | - | 423 W/m² | - |
| 1778110609 | 23.89° C | 47% | 1018.4 hPa | 0 mm | - | 438 W/m² | - |
| 1778110306 | 23.33° C | 49% | 1018.5 hPa | 0 mm | - | 431 W/m² | - |
| 1778110002 | 23.33° C | 48% | 1018.6 hPa | 0 mm | - | 466 W/m² | - |
| 1778109697 | 23.89° C | 46% | 1018.8 hPa | 0 mm | - | 496 W/m² | - |
| 1778109394 | 23.89° C | 47% | 1018.6 hPa | 0 mm | - | 513 W/m² | - |
| 1778109093 | 23.89° C | 47% | 1018.8 hPa | 0 mm | - | 511 W/m² | - |
| 1778108790 | 23.89° C | 46% | 1018.8 hPa | 0 mm | - | 534 W/m² | - |
| 1778108487 | 23.89° C | 45% | 1018.8 hPa | 0 mm | - | 547 W/m² | - |
| 1778108183 | 23.89° C | 47% | 1019 hPa | 0 mm | - | 549 W/m² | - |
| 1778107880 | 23.89° C | 46% | 1019 hPa | 0 mm | - | 562 W/m² | - |
| 1778107576 | 23.33° C | 46% | 1018.9 hPa | 0 mm | - | 567 W/m² | - |
| 1778107273 | 23.89° C | 46% | 1018.9 hPa | 0 mm | - | 553 W/m² | - |
| 1778106969 | 23.33° C | 46% | 1019 hPa | 0 mm | - | 586 W/m² | - |
| 1778106665 | 23.33° C | 46% | 1019 hPa | 0 mm | - | 597 W/m² | - |
| 1778106362 | 23.33° C | 45% | 1018.9 hPa | 0 mm | - | 615 W/m² | - |
* Rain latest hour (hover to see other rain measurements)
** Current wind speed in m/s (hover to see current wind gust speed)